Content
SEND FEEDBACK

Daily
Averages
Monthly
Summary
Canada

ANCIENNE LORETTE, QUEBEC


Home > North America > Canada > Quebec
Elevation: 230 feet     Latitude: 46 48N     Longitude: 071 22W

WEATHER
 
SELECT A DAY
Number of Records: 192,772;   Date Range: 6/30/96 - 9/15/14
 
SHARE

PRINT THIS DATA

[ ← Previous Day ]
WEATHER ALMANAC - OCTOBER 18, 2013
[ Next Day → ]
[ °C ]   °F
Weather ElementAverageHighLow
Temperature50.9 °F56 °F (2:00 pm)46 °F (2:00 am)
Dewpoint48.6 °F51.8 °F (12:00 pm)44.6 °F (10:00 pm)
Humidity91.5 %100 % (5:00 am)75 % (2:00 pm)
Barometer29.66 in29.73 in (11:00 pm)29.62 in (2:00 pm)
Wind Speed6.4 mph16.1 mph (1:00 pm)
Weather ElementAverage
Visibility12.7 mi
Wind DirectionSSW (203.8 °)

Weather ElementTotal
Precipitation---
Heating Degree Days14 (Base 65)
Growing Degree Days1 (Base 50)
Averaged from 40 records on October 18, 2013
WEATHER CONDITIONS BREAKOUT
WIND DIRECTION BREAKOUT
WEATHER BY HOUR - OCTOBER 18, 2013
[ °C ]   °F
Local TimeTemperatureDewpointHumidityBarometerVisibilityWind DirectionWind SpeedGust SpeedPrecipitationEventsConditions
1:00 AM48.2 °F46.4 °F93 %29.70 in15.0 miCalmMostly Cloudy
2:00 AM46.0 °F45.0 °F96 %29.70 inWest (260°)2.3 mph
2:00 AM48.2 °F46.4 °F93 %29.71 in15.0 miSW (230°)4.6 mphOvercast
3:00 AM48.2 °F46.4 °F93 %29.67 in15.0 miSSE (150°)2.3 mphOvercast
3:26 AM48.2 °F46.4 °F93 %29.67 in15.0 miVariable2.3 mphRainLight Rain Showers
4:00 AM48.2 °F46.4 °F93 %29.65 in15.0 miCalmRainLight Rain Showers
5:00 AM49.0 °F49.0 °F98 %29.63 inNNE (30°)1.2 mph
5:00 AM48.2 °F48.2 °F100 %29.64 in12.0 miNE (40°)4.6 mphRainLight Rain Showers
6:00 AM48.2 °F48.2 °F100 %29.64 in12.0 miWNW (300°)3.5 mphRainLight Rain Showers
7:00 AM48.2 °F48.2 °F100 %29.64 in8.0 miNNW (330°)2.3 mphRainRain Showers
7:45 AM48.2 °F48.2 °F100 %29.65 in8.0 miESE (120°)2.3 mphOvercast
8:00 AM49.0 °F49.0 °F99 %29.63 inSE (140°)1.2 mph
8:00 AM48.2 °F48.2 °F100 %29.65 in10.0 miSE (130°)2.3 mphFogOvercast
8:33 AM50.0 °F48.2 °F94 %29.65 in10.0 miWest (280°)2.3 mphFog-RainLight Rain Showers
9:00 AM50.0 °F48.2 °F94 %29.65 in6.0 miWNW (290°)2.3 mphRainLight Rain Showers
9:18 AM50.0 °F50.0 °F100 %29.65 in6.0 miCalmRainLight Rain Showers
10:00 AM51.8 °F50.0 °F94 %29.65 in5.0 miSW (230°)5.8 mphOvercast
10:17 AM51.8 °F50.0 °F94 %29.65 in2.5 miWSW (240°)5.8 mphOvercast
10:44 AM51.8 °F50.0 °F94 %29.65 in1.0 miSW (230°)6.9 mphMist
11:00 AM51.8 °F50.0 °F94 %29.65 in1.0 miWSW (250°)5.8 mphMist
11:00 AM52.0 °F51.0 °F95 %29.64 inSW (230°)4.6 mph
11:10 AM51.8 °F50.0 °F94 %29.65 in1.0 miWest (260°)8.1 mphRainLight Rain Showers
12:00 PM51.8 °F51.8 °F100 %29.65 in3.0 miWSW (250°)10.4 mphRainLight Rain Showers
12:23 PM55.4 °F51.8 °F88 %29.64 in15.0 miWSW (250°)12.7 mphMostly Cloudy
1:00 PM55.4 °F50.0 °F82 %29.64 in25.0 miWSW (240°)16.1 mphMostly Cloudy
2:00 PM55.4 °F50.0 °F82 %29.64 in25.0 miWest (260°)12.7 mphMostly Cloudy
2:00 PM56.0 °F50.0 °F75 %29.62 inWSW (250°)9.2 mph
3:00 PM53.6 °F50.0 °F88 %29.64 in20.0 miWSW (240°)12.7 mphRainLight Rain Showers
4:00 PM55.4 °F51.8 °F88 %29.64 in20.0 miWSW (240°)8.1 mphRainLight Rain Showers
5:00 PM55.4 °F50.0 °F82 %29.64 in25.0 miWSW (250°)8.1 mphMostly Cloudy
5:00 PM55.0 °F51.0 °F81 %29.62 inWest (260°)8.1 mph
6:00 PM53.6 °F50.0 °F88 %29.66 in25.0 miWSW (240°)10.4 mphRainLight Rain Showers
6:33 PM51.8 °F48.2 °F88 %29.67 in15.0 miSW (230°)9.2 mphMostly Cloudy
7:00 PM51.8 °F48.2 °F88 %29.68 in15.0 miSW (230°)8.1 mphMostly Cloudy
8:00 PM50.0 °F48.2 °F94 %29.69 in15.0 miWSW (240°)10.4 mphMostly Cloudy
8:00 PM51.0 °F48.0 °F87 %29.67 inWSW (240°)5.8 mph
9:00 PM50.0 °F46.4 °F87 %29.70 in15.0 miWSW (240°)10.4 mphMostly Cloudy
10:00 PM48.2 °F44.6 °F87 %29.72 in15.0 miWSW (250°)9.2 mphScattered Clouds
11:00 PM49.0 °F45.0 °F81 %29.71 inWSW (250°)10.4 mph
11:00 PM50.0 °F44.6 °F82 %29.73 in15.0 miWSW (250°)15.0 mphMostly Cloudy
Hourly data recorded from CYQB, located miles away from Ancienne Lorette, Quebec







STORIES FROM OUR PARTNERS